Location: Banff
(51.1667°N, 115.5667°W)
Time: 15:50:23
(UTC+00:00)

Altair - Pass Details

Date: 04 December 2020
Orbit: 1501 x 1682 km, 47.2° (Epoch: 15 January)

Event Time Altitude Azimuth Distance (km) Brightness Sun altitude
Rises 02:24:07 0° 215° (SW) 4,763 10.6 -25.1°
Reaches altitude 10° 02:27:30 10° 208° (SSW) 3,754 9.9 -25.7°
Maximum altitude 02:35:54 38° 145° (SE) 2,191 8.0 -27.0°
Enters shadow 02:36:57 37° 131° (SE) 2,220 7.9 -27.2°
